Location: La Pernelle
(49.6188°N, 1.2999°W)
Time: 10:54:07
(UTC+00:00)

Cosmos 1954 Rocket - Pass Details

Date: 25 October 2021
Orbit: 751 x 782 km, 74.0° (Epoch: 26 November)

Event Time Altitude Azimuth Distance (km) Brightness Sun altitude
Rises 19:26:08 0° 337° (NNW) 3,239 7.7 -25.0°
Reaches altitude 10° 19:28:32 10° 340° (NNW) 2,313 6.8 -25.4°
Enters shadow 19:33:12 63° 23° (NNE) 858 4.1 -26.1°
